Regional Weather Roundup
Issued by NWS

Home | Current Version | Previous Version | Text Only | Print | Product List | Glossary On
Versions: 1 2 3 4 5 6 7 8 9 10 11 12 13 14 15 16 17 18 19 20 21 22 23 24 25 26 27 28 29 30 31 32 33 34 35 36 37 38 39 40 41 42 43 44 45 46 47 48 49 50
000
ASUS45 KTFX 210004
RWRMT
MONTANA HOURLY WEATHER ROUNDUP
NATIONAL WEATHER SERVICE GREAT FALLS MT
604 PM MDT SUN APR 20 2014

NOTE: "FAIR" INDICATES FEW OR NO CLOUDS BELOW 12000 FEET WITH NO
SIGNIFICANT WEATHER AND/OR OBSTRUCTIONS TO VISIBILITY.

* THESE STATIONS ARE NOT UNDER NWS QUALITY CONTROL. THEY DO NOT
   REPORT WEATHER SUCH AS PRECIPITATION OR FOG.

MTZ001>007-043-210100-
WEST OF THE DIVIDE
CITY           SKY/WX    TMP DP  RH WIND       PRES   REMARKS
KALISPELL      PTCLDY    55  21  27 SW10      30.19R
MISSOULA       CLEAR     59  18  20 W15       30.22S
BUTTE          PTCLDY    54   9  16 NW16G24   30.19R
MULLAN PASS    PTCLDY    39  16  39 W7        30.24S WCI  34
* ESSEX        N/A       50  21  32 NE4G14     N/A
* LINCOLN      N/A       54  14  20 SW7G19     N/A
* LOOKOUT PASS N/A       47  18  31 SE9G14     N/A
* POLSON       N/A       56  20  24 SW3G11     N/A
* RONAN APT    PTCLDY    57  21  25 W13        N/A
* SEELEY LAKE  N/A       54  18  24 W7G15      N/A
* THOMP F APT  PTCLDY    60  18  19 S8G19      N/A
$$

MTZ008-052>055-210100-
SOUTHWEST MONTANA
CITY           SKY/WX    TMP DP  RH WIND       PRES   REMARKS
BOZEMAN        PTCLDY    61   9  13 W16G22    30.13S
DILLON         PTCLDY    57  10  15 W9G21     30.16S
W YELLOWSTONE  N/A       54  21  27 SW5G12     N/A
* THREE FORKS  PTCLDY    63  12  13 W15G22     N/A
* BOULDER HILL N/A       52  15  23 SW11G18    N/A
* MONIDA PASS  N/A       55   8  15 NW11G22    N/A
* RAYNOLDS PAS N/A       53  21  29 NE6        N/A
* WHITEHALL    N/A       63   8  11 W13G21     N/A
* WISE RIVER   N/A       53  12  19 NW14G24    N/A
$$

MTZ009>010-012-014-046-048-049-054-210100-
EAST SLOPES AND CENTRAL MONTANA
CITY           SKY/WX    TMP DP  RH WIND       PRES   REMARKS
CUT BANK       CLEAR     54  19  25 W21G33    30.12R
GREAT FALLS    CLEAR     57  14  18 W17G26    30.11S
HELENA         CLEAR     61  12  14 W20G25    30.14S
MALMSTROM AFB  CLEAR     59  10  14 W17G23    30.10R
* CONRAD       CLEAR     57  19  23 W13G22     N/A
* DEARBORN     N/A       58  15  18 S16G25     N/A
* EAST GLACIER N/A       46  21  37 W12G21     N/A
* MONARCH      N/A       50  11  21 W18G26     N/A
* PENDROY      N/A       52  17  25 W18G29     N/A
* ROGERS PASS  N/A       47  12  24 SE8G20     N/A
* SAINT MARY   N/A       49  22  35 SW9G24     N/A
* SWEET GRASS  N/A       55  17  22 NW22G28    N/A
$$

MTZ011-013-016-021-035-040-045-047-050-051-210100-
NORTH CENTRAL MONTANA
CITY           SKY/WX    TMP DP  RH WIND       PRES   REMARKS
HAVRE          FAIR      63  19  18 W20       30.04R
LEWISTOWN      CLEAR     55  12  18 NW17G28   30.11R
* CHESTER      N/A       59  17  19 NW17G25    N/A
* DENTON       N/A       59  17  19 W17G24     N/A
* GEYSER       N/A       55  15  20 W22G32     N/A
* JUDITH GAP   N/A       57  12  17 W17G23     N/A
* LOMA         N/A       61  17  18 W16G21     N/A
$$

MTZ017>020-022>027-061-062-210100-
NORTHEAST MONTANA
CITY           SKY/WX    TMP DP  RH WIND       PRES   REMARKS
GLASGOW        CLEAR     63  25  24 NW24G37   30.01R
GLENDIVE       CLEAR     63  23  22 W20G32    30.03R
JORDAN         CLEAR     64  19  18 NW20G29   30.04R
SIDNEY         PTCLDY    64  27  25 W24G32    29.99R
WOLF POINT     MOCLDY    66  25  21 NW23G30   29.99R
* BEAVER HILL  N/A       63  20  19 W26G34     N/A
* CIRCLE       N/A       64  29  27 W14G24     N/A
* LINDSAY DVD  N/A       61  21  21 W25G34     N/A
* NAVAJO       N/A       59  27  29 NW25G37    N/A
* SACO         N/A       63  24  23 W26G34     N/A
$$

MTZ028>042-056>058-210100-
SOUTHCENTRAL AND SOUTHEAST MONTANA
CITY           SKY/WX    TMP DP  RH WIND       PRES   REMARKS
BAKER          CLEAR     63  14  15 NW22G33   30.03R
BILLINGS       FAIR      63  16  16 N18G28    30.09R
LIVINGSTON     CLEAR     61  12  14 W21       30.10S
MILES CITY     PTCLDY    64  12  13 NW23G32   30.05R
* LAUREL APT   CLEAR     64  21  19 W15G20     N/A
* ROUNDUP APT  CLEAR     63  12  13 W11G17     N/A
* HYSHAM       N/A       62  15  16 VRB6G11    N/A
* REED POINT   N/A       64  21  19 W23G30     N/A
* ROSCOE HILL  N/A       58  10  15 N11G17     N/A
$$

REGIONAL REPORTS...DAKOTAS
CITY           SKY/WX    TMP DP  RH WIND       PRES   REMARKS
WILLISTON      CLEAR     64  28  26 W24G30    29.94R
DICKINSON      CLEAR     64  18  17 W25G39    29.96R
CROSBY         FAIR      59  32  36 NW17G35   29.91R
TIOGA          CLEAR     59  27  29 W26G38    29.95R
WATFORD CITY   CLEAR     63  27  26 NW21G32   29.93R
BISMARCK       PTCLDY    70  28  21 NW28G37   29.90R
GRAND FORKS    CLOUDY    68  43  40 SE8       29.84F
FARGO          MOCLDY    73  30  20 S12       29.88F
RAPID CITY     MOCLDY    66  28  24 N25G36    29.99R
$$

REGIONAL REPORTS...WYOMING/IDAHO/WASHINGTON
CITY           SKY/WX    TMP DP  RH WIND       PRES   REMARKS
GILLETTE       CLEAR     63  30  29 N15       30.08R
SHERIDAN       PTCLDY    63  28  27 NW14      30.09R
CODY           CLEAR     61  25  25 N13       30.10R
YELLOWSTONE LA PTCLDY    46  19  34 W8        30.24R
SALMON         PTCLDY    61  16  17 N9        30.15R
MULLAN PASS    PTCLDY    39  16  39 W7        30.24S WCI  34
SPOKANE        CLOUDY    55  27  34 S7        30.23S

$$




USA.gov is the U.S. government's official web portal to all federal, state and local government web resources and services.